Location: New Plymouth
(39.0670°S, 174.0830°E)
Time: 09:50:22
(UTC+13:00)

Cosmos 1862 Rocket - Pass Details

Date: 24 January 2019
Orbit: 605 x 633 km, 82.5° (Epoch: 19 February)

Event Time Altitude Azimuth Distance (km) Brightness Sun altitude
Exits shadow 23:23:40 37° 121° (ESE) 981 4.5 -24.0°
Drops below altitude 10° 23:26:55 10° 158° (SSE) 2,010 6.6 -24.4°
Sets 23:29:14 0° 165° (SSE) 2,920 7.6 -24.6°
